• In Moldova, Republic
  • List of Countries
  • For 7 days
  • Water Temperature
  • Satellite Maps
  • Weather Map
  • Weather Widgets
  • user-avatar
    Login

    Hourly Weather Korçe

    Today, 24 April, Monday

    Time Temperature Precipitation Wind Pressure Humidity
    00:00 +2°C° 0 mm 1 mps 667 mmHg 88%
    01:00 +2°C° 0 mm 1 mps 667 mmHg 89%
    02:00 +1°C° 0 mm 1 mps 667 mmHg 89%
    03:00 +1°C° 0 mm 1 mps 667 mmHg 88%
    04:00 +1°C° 0 mm 1 mps 667 mmHg 88%
    05:00 +3°C° 0 mm 1 mps 668 mmHg 80%
    06:00 +6°C° 0 mm 1 mps 669 mmHg 72%
    07:00 +7°C° 0 mm 0 mps 670 mmHg 64%
    08:00 +10°C° 0 mm 1 mps 670 mmHg 58%
    09:00 +12°C° 0 mm 1 mps 671 mmHg 52%
    10:00 +14°C° 0 mm 1 mps 671 mmHg 46%
    11:00 +14°C° 0 mm 1 mps 671 mmHg 46%
    12:00 +14°C° 0 mm 2 mps 671 mmHg 46%
    13:00 +14°C° 0 mm 2 mps 671 mmHg 46%
    14:00 +14°C° 0 mm 2 mps 671 mmHg 50%
    15:00 +13°C° 0 mm 2 mps 670 mmHg 53%
    16:00 +13°C° 0 mm 2 mps 670 mmHg 57%
    17:00 +11°C° 0 mm 1 mps 670 mmHg 67%
    18:00 +9°C° 0 mm 1 mps 669 mmHg 78%
    19:00 +7°C° 0 mm 1 mps 668 mmHg 88%
    20:00 +6°C° 0 mm 1 mps 668 mmHg 89%
    21:00 +6°C° 0 mm 1 mps 669 mmHg 90%
    22:00 +5°C° 0 mm 1 mps 669 mmHg 92%
    23:00 +5°C° 0 mm 1 mps 669 mmHg 92%

    Tomorrow, 25 April, Tuesday

    Time Temperature Precipitation Wind Pressure Humidity
    00:00 +5°C° 0 mm 1 mps 668 mmHg 93%
    01:00 +4°C° 0 mm 1 mps 668 mmHg 94%
    02:00 +4°C° 0 mm 1 mps 668 mmHg 94%
    03:00 +4°C° 0 mm 1 mps 668 mmHg 94%
    04:00 +3°C° 0 mm 1 mps 668 mmHg 94%
    05:00 +5°C° 0 mm 1 mps 668 mmHg 86%
    06:00 +6°C° 0 mm 2 mps 669 mmHg 79%
    07:00 +8°C° 0 mm 2 mps 670 mmHg 71%
    08:00 +10°C° 0 mm 2 mps 670 mmHg 61%
    09:00 +13°C° 0 mm 2 mps 670 mmHg 51%
    10:00 +14°C° 0 mm 2 mps 671 mmHg 41%
    11:00 +15°C° 0 mm 2 mps 671 mmHg 40%
    12:00 +16°C° 0 mm 3 mps 671 mmHg 38%
    13:00 +16°C° 0 mm 3 mps 671 mmHg 37%
    14:00 +16°C° 0 mm 3 mps 670 mmHg 40%
    15:00 +14°C° 0 mm 3 mps 670 mmHg 43%
    16:00 +14°C° 0 mm 3 mps 670 mmHg 46%
    17:00 +12°C° 0 mm 2 mps 669 mmHg 58%
    18:00 +8°C° 0 mm 2 mps 668 mmHg 70%
    19:00 +7°C° 0 mm 1 mps 667 mmHg 82%
    20:00 +5°C° 0 mm 2 mps 667 mmHg 84%
    21:00 +4°C° 0 mm 2 mps 667 mmHg 86%
    22:00 +4°C° 0 mm 2 mps 667 mmHg 88%
    23:00 +3°C° 0 mm 2 mps 667 mmHg 84%

    Day after tomorrow, 26 April, Wednesday

    Time Temperature Precipitation Wind Pressure Humidity
    00:00 +4°C° 0 mm 1 mps 667 mmHg 80%
    01:00 +4°C° 0 mm 1 mps 666 mmHg 76%
    02:00 +3°C° 0 mm 1 mps 666 mmHg 72%
    03:00 +3°C° 0 mm 1 mps 666 mmHg 68%
    04:00 +3°C° 0 mm 1 mps 666 mmHg 64%
    05:00 +4°C° 0 mm 2 mps 666 mmHg 58%
    06:00 +7°C° 0 mm 2 mps 667 mmHg 52%
    07:00 +9°C° 0 mm 2 mps 668 mmHg 46%
    08:00 +12°C° 0 mm 2 mps 668 mmHg 41%
    09:00 +14°C° 0 mm 2 mps 669 mmHg 36%
    10:00 +16°C° 0 mm 2 mps 669 mmHg 31%
    11:00 +16°C° 0 mm 2 mps 669 mmHg 30%
    12:00 +17°C° 0 mm 3 mps 670 mmHg 30%
    13:00 +18°C° 0 mm 3 mps 670 mmHg 30%
    14:00 +17°C° 0 mm 3 mps 669 mmHg 33%
    15:00 +17°C° 0 mm 3 mps 669 mmHg 35%
    16:00 +16°C° 0 mm 3 mps 668 mmHg 38%
    17:00 +14°C° 0 mm 2 mps 668 mmHg 49%
    18:00 +10°C° 0 mm 2 mps 667 mmHg 61%
    19:00 +8°C° 0 mm 1 mps 666 mmHg 72%
    20:00 +7°C° 0 mm 1 mps 666 mmHg 74%
    21:00 +7°C° 0 mm 1 mps 666 mmHg 76%
    22:00 +6°C° 0 mm 1 mps 667 mmHg 78%
    23:00 +6°C° 0 mm 1 mps 666 mmHg 77%

    27 April, Thursday

    Time Temperature Precipitation Wind Pressure Humidity
    00:00 +6°C° 0 mm 1 mps 666 mmHg 76%
    01:00 +5°C° 0 mm 2 mps 666 mmHg 76%
    02:00 +6°C° 0 mm 1 mps 666 mmHg 74%
    03:00 +6°C° 0 mm 1 mps 666 mmHg 73%
    04:00 +5°C° 0 mm 1 mps 665 mmHg 72%
    05:00 +8°C° 0 mm 1 mps 666 mmHg 64%
    06:00 +10°C° 0 mm 1 mps 667 mmHg 57%
    07:00 +13°C° 0 mm 1 mps 668 mmHg 49%
    08:00 +15°C° 0 mm 1 mps 668 mmHg 44%
    09:00 +18°C° 0 mm 1 mps 669 mmHg 39%
    10:00 +20°C° 0 mm 1 mps 669 mmHg 34%
    11:00 +20°C° 0 mm 2 mps 669 mmHg 34%
    12:00 +20°C° 0 mm 2 mps 669 mmHg 33%
    13:00 +21°C° 0 mm 2 mps 669 mmHg 33%
    14:00 +20°C° 0 mm 2 mps 669 mmHg 35%
    15:00 +20°C° 0 mm 2 mps 668 mmHg 37%
    16:00 +19°C° 0 mm 2 mps 668 mmHg 39%
    17:00 +16°C° 0 mm 2 mps 667 mmHg 50%
    18:00 +13°C° 0 mm 2 mps 666 mmHg 61%
    19:00 +10°C° 0 mm 1 mps 666 mmHg 72%
    20:00 +10°C° 0 mm 1 mps 666 mmHg 73%
    21:00 +8°C° 0 mm 2 mps 666 mmHg 74%
    22:00 +8°C° 0 mm 2 mps 666 mmHg 74%
    23:00 +8°C° 0 mm 2 mps 666 mmHg 71%

    28 April, Friday

    Time Temperature Precipitation Wind Pressure Humidity
    00:00 +8°C° 0 mm 2 mps 665 mmHg 67%
    01:00 +7°C° 0 mm 2 mps 665 mmHg 64%
    02:00 +7°C° 0 mm 2 mps 665 mmHg 62%
    03:00 +7°C° 0 mm 2 mps 665 mmHg 59%
    04:00 +7°C° 0 mm 2 mps 665 mmHg 57%
    05:00 +9°C° 0 mm 2 mps 665 mmHg 53%
    06:00 +10°C° 0 mm 2 mps 666 mmHg 49%
    07:00 +13°C° 0 mm 2 mps 667 mmHg 45%
    08:00 +15°C° 0 mm 2 mps 667 mmHg 41%
    09:00 +17°C° 0 mm 3 mps 667 mmHg 36%
    10:00 +18°C° 0 mm 3 mps 668 mmHg 32%
    11:00 +18°C° 0 mm 3 mps 667 mmHg 35%
    12:00 +17°C° 0 mm 3 mps 667 mmHg 38%
    13:00 +17°C° 0 mm 4 mps 666 mmHg 41%
    14:00 +17°C° 0 mm 4 mps 666 mmHg 41%
    15:00 +17°C° 0 mm 4 mps 666 mmHg 42%
    16:00 +17°C° 0 mm 4 mps 666 mmHg 43%
    17:00 +13°C° 0.6 mm 3 mps 666 mmHg 55%
    18:00 +11°C° 0.6 mm 3 mps 665 mmHg 66%
    19:00 +9°C° 0.6 mm 2 mps 665 mmHg 78%
    20:00 +9°C° 0 mm 2 mps 665 mmHg 77%
    21:00 +8°C° 0 mm 2 mps 665 mmHg 77%
    22:00 +8°C° 0 mm 2 mps 665 mmHg 76%
    23:00 +7°C° 0 mm 2 mps 664 mmHg 76%

    29 April, Saturday

    Time Temperature Precipitation Wind Pressure Humidity
    00:00 +7°C° 0 mm 2 mps 664 mmHg 76%
    01:00 +6°C° 0 mm 2 mps 664 mmHg 76%
    02:00 +6°C° 0 mm 2 mps 663 mmHg 77%
    03:00 +7°C° 0 mm 1 mps 663 mmHg 78%
    04:00 +7°C° 0 mm 1 mps 663 mmHg 79%
    05:00 +8°C° 0 mm 1 mps 664 mmHg 74%
    06:00 +10°C° 0 mm 1 mps 664 mmHg 69%
    07:00 +12°C° 0 mm 1 mps 665 mmHg 64%
    08:00 +14°C° 0 mm 2 mps 665 mmHg 56%
    09:00 +15°C° 0 mm 2 mps 666 mmHg 49%
    10:00 +17°C° 0 mm 2 mps 666 mmHg 41%
    11:00 +16°C° 0.1 mm 2 mps 666 mmHg 45%
    12:00 +16°C° 0.1 mm 3 mps 665 mmHg 49%
    13:00 +14°C° 0.1 mm 3 mps 665 mmHg 53%
    14:00 +13°C° 0.4 mm 3 mps 665 mmHg 60%
    15:00 +13°C° 0.4 mm 2 mps 664 mmHg 67%
    16:00 +12°C° 0.4 mm 2 mps 664 mmHg 75%
    17:00 +10°C° 0.3 mm 2 mps 664 mmHg 79%
    18:00 +10°C° 0.3 mm 1 mps 664 mmHg 84%
    19:00 +9°C° 0.3 mm 1 mps 664 mmHg 89%
    20:00 +9°C° 1 mm 1 mps 664 mmHg 90%
    21:00 +9°C° 1 mm 1 mps 664 mmHg 92%
    22:00 +8°C° 1 mm 1 mps 664 mmHg 94%
    23:00 +8°C° 0.5 mm 1 mps 664 mmHg 94%
    Show more